| time (UTC) | temp C | wind direction | speed KPH | gust KPH | rain 1hr cm | rain 24hr cm | rain mn cm | humidity % | barometer mb |
| 20260510072917 | 12 | 68 | 3.2 | 3.2 | 0.00 | 0.00 | 0.00 | 82 | 1015.3 |
| 20260510071917 | 12 | 0.0 | 1.6 | 0.00 | 0.00 | 0.00 | 83 | 1015.3 | |
| 20260510070917 | 11 | 113 | 3.2 | 3.2 | 0.00 | 0.00 | 0.00 | 84 | 1015.4 |
| 20260510065917 | 11 | 113 | 1.6 | 3.2 | 0.00 | 0.00 | 0.00 | 84 | 1015.4 |
| 20260510064917 | 11 | 90 | 1.6 | 3.2 | 0.00 | 0.00 | 0.00 | 86 | 1015.5 |
| 20260510063937 | 11 | 135 | 3.2 | 4.8 | 0.00 | 0.00 | 0.00 | 86 | 1015.5 |
| 20260510062917 | 10 | 0.0 | 1.6 | 0.00 | 0.00 | 0.00 | 87 | 1015.6 | |
| 20260510061917 | 10 | 90 | 1.6 | 3.2 | 0.00 | 0.00 | 0.00 | 87 | 1015.6 |
| 20260510060917 | 10 | 135 | 3.2 | 4.8 | 0.00 | 0.00 | 0.00 | 87 | 1015.7 |
| 20260510055917 | 10 | 135 | 4.8 | 6.4 | 0.00 | 0.00 | 0.00 | 87 | 1015.6 |
| 20260510054957 | 9 | 113 | 3.2 | 4.8 | 0.00 | 0.00 | 0.00 | 88 | 1015.8 |
| 20260510053917 | 9 | 135 | 3.2 | 4.8 | 0.00 | 0.00 | 0.00 | 89 | 1015.8 |
| 20260510053037 | 8 | 135 | 1.6 | 3.2 | 0.00 | 0.00 | 0.00 | 91 | 1015.8 |
| 20260510051917 | 8 | 0.0 | 1.6 | 0.00 | 0.00 | 0.00 | 91 | 1015.8 | |
| 20260510050917 | 7 | 90 | 1.6 | 3.2 | 0.00 | 0.00 | 0.00 | 91 | 1015.9 |
| 20260510045917 | 7 | 0.0 | 1.6 | 0.00 | 0.00 | 0.00 | 92 | 1016.0 | |
| 20260510044917 | 7 | 0.0 | 0.0 | 0.00 | 0.00 | 0.00 | 92 | 1015.9 | |
| 20260510043917 | 7 | 68 | 1.6 | 1.6 | 0.00 | 0.00 | 0.00 | 92 | 1016.0 |
| 20260510042917 | 7 | 0.0 | 1.6 | 0.00 | 0.00 | 0.00 | 92 | 1016.0 | |
| 20260510041917 | 7 | 0.0 | 0.0 | 0.00 | 0.00 | 0.00 | 92 | 1016.1 | |
| 20260510040917 | 7 | 0.0 | 1.6 | 0.00 | 0.00 | 0.00 | 92 | 1016.1 | |
| 20260510035917 | 7 | 68 | 1.6 | 3.2 | 0.00 | 0.00 | 0.00 | 92 | 1016.1 |
| 20260510034917 | 7 | 0.0 | 0.0 | 0.00 | 0.00 | 0.00 | 92 | 1016.2 | |
| 20260510033917 | 7 | 0.0 | 1.6 | 0.00 | 0.00 | 0.00 | 92 | 1016.2 | |
| 20260510032917 | 7 | 0.0 | 1.6 | 0.00 | 0.00 | 0.00 | 91 | 1016.1 | |
| 20260510031917 | 7 | 0.0 | 1.6 | 0.00 | 0.00 | 0.00 | 91 | 1016.2 | |
| 20260510030917 | 7 | 0.0 | 1.6 | 0.00 | 0.00 | 0.00 | 91 | 1016.3 | |
| 20260510025937 | 7 | 0.0 | 1.6 | 0.00 | 0.00 | 0.00 | 90 | 1016.4 | |
| 20260510024917 | 7 | 0.0 | 1.6 | 0.00 | 0.00 | 0.00 | 90 | 1016.5 | |
| 20260510023917 | 8 | 0.0 | 0.0 | 0.00 | 0.00 | 0.00 | 90 | 1016.6 | |
| 20260510022917 | 8 | 0.0 | 1.6 | 0.00 | 0.00 | 0.00 | 90 | 1016.6 | |
| 20260510021917 | 8 | 0.0 | 1.6 | 0.00 | 0.00 | 0.00 | 90 | 1016.7 | |
| 20260510020917 | 8 | 113 | 1.6 | 3.2 | 0.00 | 0.00 | 0.00 | 90 | 1016.8 |
| 20260510015917 | 8 | 0.0 | 1.6 | 0.00 | 0.00 | 0.00 | 90 | 1016.8 | |
| 20260510014917 | 8 | 135 | 1.6 | 1.6 | 0.00 | 0.00 | 0.00 | 90 | 1016.8 |
| 20260510013917 | 8 | 0.0 | 0.0 | 0.00 | 0.00 | 0.00 | 90 | 1016.8 | |
| 20260510012917 | 8 | 0.0 | 1.6 | 0.00 | 0.00 | 0.00 | 90 | 1016.9 | |
| 20260510011917 | 8 | 113 | 1.6 | 1.6 | 0.00 | 0.00 | 0.00 | 90 | 1017.0 |
| 20260510010937 | 8 | 0.0 | 1.6 | 0.00 | 0.00 | 0.00 | 90 | 1017.2 | |
| 20260510005917 | 8 | 0.0 | 0.0 | 0.00 | 0.00 | 0.00 | 90 | 1017.2 | |
| 20260510004917 | 8 | 0.0 | 1.6 | 0.00 | 0.00 | 0.00 | 89 | 1017.3 | |
| 20260510003917 | 8 | 0.0 | 0.0 | 0.00 | 0.00 | 0.00 | 89 | 1017.3 | |
| 20260510002917 | 8 | 0.0 | 1.6 | 0.00 | 0.00 | 0.00 | 89 | 1017.5 | |
| 20260510001917 | 8 | 113 | 1.6 | 1.6 | 0.00 | 0.00 | 0.00 | 89 | 1017.5 |
| 20260510000917 | 8 | 0.0 | 1.6 | 0.00 | 0.00 | 0.00 | 89 | 1017.8 | |
| 20260509235917 | 8 | 0.0 | 1.6 | 0.00 | 0.00 | 0.00 | 89 | 1017.9 | |
| 20260509234917 | 8 | 0.0 | 1.6 | 0.00 | 0.00 | 0.00 | 89 | 1017.9 | |
| 20260509233937 | 8 | 0.0 | 1.6 | 0.00 | 0.00 | 0.00 | 88 | 1017.9 | |
| 20260509232917 | 8 | 135 | 3.2 | 4.8 | 0.00 | 0.00 | 0.00 | 88 | 1017.9 |
| 20260509231917 | 8 | 135 | 1.6 | 3.2 | 0.00 | 0.00 | 0.00 | 88 | 1017.9 |
| 20260509230917 | 8 | 0.0 | 1.6 | 0.00 | 0.00 | 0.00 | 87 | 1018.1 | |
| 20260509225917 | 8 | 0.0 | 1.6 | 0.00 | 0.00 | 0.00 | 87 | 1018.2 | |
| 20260509224937 | 9 | 158 | 1.6 | 3.2 | 0.00 | 0.00 | 0.00 | 87 | 1018.3 |
| 20260509223917 | 9 | 0.0 | 1.6 | 0.00 | 0.00 | 0.00 | 86 | 1018.5 | |
| 20260509222917 | 9 | 90 | 1.6 | 1.6 | 0.00 | 0.00 | 0.00 | 85 | 1018.7 |
| 20260509221917 | 10 | 0.0 | 1.6 | 0.00 | 0.00 | 0.00 | 84 | 1018.9 | |
| 20260509220917 | 10 | 0.0 | 0.0 | 0.00 | 0.00 | 0.00 | 84 | 1018.8 | |
| 20260509215915 | 10 | 68 | 3.2 | 4.8 | 0.00 | 0.00 | 0.00 | 83 | 1018.8 |
| 20260509214915 | 10 | 90 | 3.2 | 3.2 | 0.00 | 0.00 | 0.00 | 82 | 1018.9 |
| 20260509213916 | 11 | 0.0 | 1.6 | 0.00 | 0.00 | 0.00 | 82 | 1019.0 | |
| 20260509212915 | 11 | 90 | 1.6 | 3.2 | 0.00 | 0.00 | 0.00 | 81 | 1019.0 |
| 20260509211936 | 11 | 68 | 3.2 | 6.4 | 0.00 | 0.00 | 0.00 | 81 | 1018.9 |
| 20260509210915 | 11 | 68 | 1.6 | 3.2 | 0.00 | 0.00 | 0.00 | 80 | 1019.0 |
| 20260509205915 | 11 | 68 | 3.2 | 4.8 | 0.00 | 0.00 | 0.00 | 79 | 1019.1 |
| 20260509204915 | 11 | 90 | 3.2 | 3.2 | 0.00 | 0.00 | 0.00 | 79 | 1019.2 |
| 20260509203915 | 12 | 0.0 | 1.6 | 0.00 | 0.00 | 0.00 | 79 | 1019.2 | |
| 20260509202915 | 12 | 68 | 3.2 | 4.8 | 0.00 | 0.00 | 0.00 | 79 | 1019.2 |
| 20260509201916 | 12 | 68 | 1.6 | 4.8 | 0.00 | 0.00 | 0.00 | 78 | 1019.3 |
| 20260509200916 | 12 | 68 | 1.6 | 1.6 | 0.00 | 0.00 | 0.00 | 78 | 1019.3 |
| 20260509195915 | 12 | 68 | 1.6 | 4.8 | 0.00 | 0.00 | 0.00 | 78 | 1019.3 |
| 20260509194916 | 12 | 90 | 1.6 | 3.2 | 0.00 | 0.00 | 0.00 | 78 | 1019.2 |
| 20260509193936 | 12 | 135 | 1.6 | 3.2 | 0.00 | 0.00 | 0.00 | 77 | 1019.3 |
| 20260509192916 | 12 | 0.0 | 1.6 | 0.00 | 0.00 | 0.00 | 76 | 1019.2 | |
| 20260509191915 | 12 | 68 | 3.2 | 4.8 | 0.00 | 0.00 | 0.00 | 76 | 1019.2 |
| 20260509190916 | 13 | 0.0 | 1.6 | 0.00 | 0.00 | 0.00 | 75 | 1019.2 | |
| 20260509185915 | 13 | 0.0 | 1.6 | 0.00 | 0.00 | 0.00 | 74 | 1018.9 | |
| 20260509184916 | 13 | 113 | 3.2 | 6.4 | 0.00 | 0.00 | 0.00 | 73 | 1018.8 |
| 20260509183916 | 13 | 113 | 3.2 | 4.8 | 0.00 | 0.00 | 0.00 | 71 | 1018.8 |
| 20260509182915 | 14 | 113 | 1.6 | 6.4 | 0.00 | 0.00 | 0.00 | 70 | 1018.9 |
| 20260509181915 | 15 | 113 | 1.6 | 1.6 | 0.00 | 0.00 | 0.00 | 68 | 1018.9 |
| 20260509180915 | 15 | 68 | 3.2 | 6.4 | 0.00 | 0.00 | 0.00 | 67 | 1018.7 |
| 20260509175916 | 16 | 113 | 3.2 | 4.8 | 0.00 | 0.00 | 0.00 | 66 | 1018.7 |
| 20260509174915 | 16 | 113 | 4.8 | 9.7 | 0.00 | 0.00 | 0.00 | 65 | 1018.6 |
| 20260509173915 | 16 | 113 | 6.4 | 9.7 | 0.00 | 0.00 | 0.00 | 64 | 1018.5 |
| 20260509172916 | 16 | 68 | 3.2 | 6.4 | 0.00 | 0.00 | 0.00 | 63 | 1018.6 |
| 20260509171916 | 16 | 90 | 6.4 | 11.3 | 0.00 | 0.00 | 0.00 | 62 | 1018.6 |
| 20260509170916 | 16 | 0.0 | 1.6 | 0.00 | 0.00 | 0.00 | 63 | 1018.6 | |
| 20260509165916 | 16 | 135 | 8.0 | 11.3 | 0.00 | 0.00 | 0.00 | 62 | 1018.6 |
| 20260509164916 | 16 | 68 | 6.4 | 9.7 | 0.00 | 0.00 | 0.00 | 61 | 1018.7 |
| 20260509163916 | 16 | 90 | 4.8 | 6.4 | 0.00 | 0.00 | 0.00 | 61 | 1018.7 |
| 20260509162935 | 16 | 68 | 6.4 | 12.9 | 0.00 | 0.00 | 0.00 | 61 | 1018.9 |
| 20260509161935 | 16 | 68 | 3.2 | 6.4 | 0.00 | 0.00 | 0.00 | 62 | 1018.9 |
| 20260509160915 | 16 | 113 | 8.0 | 17.7 | 0.00 | 0.00 | 0.00 | 62 | 1019.0 |
| 20260509155915 | 16 | 90 | 9.7 | 14.5 | 0.00 | 0.00 | 0.00 | 61 | 1019.1 |
| 20260509154916 | 16 | 135 | 9.7 | 16.1 | 0.00 | 0.00 | 0.00 | 63 | 1019.2 |
| 20260509153916 | 16 | 135 | 12.9 | 17.7 | 0.00 | 0.00 | 0.00 | 62 | 1019.3 |
| 20260509152935 | 16 | 113 | 9.7 | 19.3 | 0.00 | 0.00 | 0.00 | 63 | 1019.4 |
| 20260509151915 | 16 | 90 | 8.0 | 11.3 | 0.00 | 0.00 | 0.00 | 64 | 1019.5 |
| 20260509150916 | 16 | 0.0 | 3.2 | 0.00 | 0.00 | 0.00 | 64 | 1019.6 | |
| 20260509145916 | 16 | 113 | 6.4 | 14.5 | 0.00 | 0.00 | 0.00 | 64 | 1019.6 |
| 20260509144915 | 16 | 45 | 3.2 | 8.0 | 0.00 | 0.00 | 0.00 | 66 | 1019.8 |
| 20260509143935 | 16 | 113 | 8.0 | 11.3 | 0.00 | 0.00 | 0.00 | 67 | 1019.9 |
| 20260509142916 | 16 | 113 | 9.7 | 14.5 | 0.00 | 0.00 | 0.00 | 67 | 1020.0 |
| 20260509141915 | 16 | 90 | 4.8 | 11.3 | 0.00 | 0.00 | 0.00 | 69 | 1020.1 |
| 20260509140915 | 16 | 135 | 8.0 | 14.5 | 0.00 | 0.00 | 0.00 | 68 | 1020.3 |
| 20260509135916 | 15 | 270 | 4.8 | 8.0 | 0.00 | 0.00 | 0.00 | 67 | 1020.4 |
| 20260509134935 | 15 | 113 | 4.8 | 6.4 | 0.00 | 0.00 | 0.00 | 68 | 1020.4 |
| 20260509133916 | 16 | 113 | 4.8 | 8.0 | 0.00 | 0.00 | 0.00 | 67 | 1020.6 |
| 20260509132915 | 15 | 113 | 6.4 | 11.3 | 0.00 | 0.00 | 0.00 | 66 | 1020.7 |
| 20260509131915 | 15 | 113 | 1.6 | 4.8 | 0.00 | 0.00 | 0.00 | 67 | 1020.7 |
| 20260509130935 | 15 | 113 | 1.6 | 4.8 | 0.00 | 0.00 | 0.00 | 69 | 1020.8 |
| 20260509125915 | 15 | 135 | 9.7 | 12.9 | 0.00 | 0.00 | 0.00 | 70 | 1020.9 |
| 20260509124916 | 15 | 90 | 1.6 | 3.2 | 0.00 | 0.00 | 0.00 | 70 | 1021.0 |
| 20260509123915 | 15 | 90 | 3.2 | 4.8 | 0.00 | 0.00 | 0.00 | 71 | 1021.0 |
| 20260509122916 | 15 | 113 | 4.8 | 8.0 | 0.00 | 0.00 | 0.00 | 69 | 1021.2 |
| 20260509121915 | 15 | 113 | 3.2 | 6.4 | 0.00 | 0.00 | 0.00 | 71 | 1021.3 |
| 20260509120916 | 15 | 113 | 6.4 | 8.0 | 0.00 | 0.00 | 0.00 | 70 | 1021.3 |
| 20260509115915 | 15 | 68 | 4.8 | 6.4 | 0.00 | 0.00 | 0.00 | 70 | 1021.3 |
| 20260509114916 | 15 | 113 | 1.6 | 4.8 | 0.00 | 0.00 | 0.00 | 70 | 1021.3 |
| 20260509113916 | 15 | 113 | 4.8 | 6.4 | 0.00 | 0.00 | 0.00 | 69 | 1021.4 |
| 20260509112915 | 15 | 113 | 3.2 | 6.4 | 0.00 | 0.00 | 0.00 | 70 | 1021.5 |
| 20260509111915 | 15 | 135 | 4.8 | 11.3 | 0.00 | 0.00 | 0.00 | 68 | 1021.5 |
| 20260509110915 | 15 | 113 | 6.4 | 9.7 | 0.00 | 0.00 | 0.00 | 69 | 1021.5 |
| 20260509105916 | 15 | 113 | 3.2 | 4.8 | 0.00 | 0.00 | 0.00 | 68 | 1021.6 |
| 20260509104915 | 15 | 68 | 4.8 | 9.7 | 0.00 | 0.00 | 0.00 | 70 | 1021.7 |
| 20260509103916 | 15 | 90 | 8.0 | 12.9 | 0.00 | 0.00 | 0.00 | 72 | 1021.9 |
| 20260509102915 | 15 | 113 | 8.0 | 9.7 | 0.00 | 0.00 | 0.00 | 71 | 1021.8 |
| 20260509101915 | 15 | 135 | 8.0 | 14.5 | 0.00 | 0.00 | 0.00 | 73 | 1021.9 |
| 20260509100916 | 15 | 135 | 6.4 | 11.3 | 0.00 | 0.00 | 0.00 | 74 | 1021.9 |
| 20260509095915 | 14 | 135 | 9.7 | 12.9 | 0.00 | 0.00 | 0.00 | 74 | 1021.9 |
| 20260509094916 | 14 | 135 | 8.0 | 14.5 | 0.00 | 0.00 | 0.00 | 75 | 1022.0 |
| 20260509093915 | 15 | 135 | 4.8 | 6.4 | 0.00 | 0.00 | 0.00 | 75 | 1022.0 |
| 20260509093008 | 15 | 135 | 3.2 | 4.8 | 0.00 | 0.00 | 0.00 | 75 | 1022.0 |
| 20260509091916 | 14 | 113 | 4.8 | 6.4 | 0.00 | 0.00 | 0.00 | 77 | 1022.1 |
| 20260509090917 | 14 | 135 | 6.4 | 9.7 | 0.00 | 0.00 | 0.00 | 77 | 1022.1 |
| 20260509085918 | 14 | 135 | 3.2 | 8.0 | 0.00 | 0.00 | 0.00 | 77 | 1022.1 |
| 20260509084917 | 13 | 113 | 4.8 | 8.0 | 0.00 | 0.00 | 0.00 | 78 | 1022.0 |
| 20260509083918 | 13 | 135 | 4.8 | 9.7 | 0.00 | 0.00 | 0.00 | 79 | 1022.1 |
| 20260509082917 | 13 | 113 | 3.2 | 4.8 | 0.00 | 0.00 | 0.00 | 79 | 1022.1 |
| 20260509081918 | 13 | 113 | 4.8 | 8.0 | 0.00 | 0.00 | 0.00 | 80 | 1022.1 |
| 20260509080957 | 13 | 90 | 4.8 | 8.0 | 0.00 | 0.00 | 0.00 | 82 | 1022.2 |
| 20260509075917 | 12 | 68 | 1.6 | 3.2 | 0.00 | 0.00 | 0.00 | 83 | 1022.1 |
| 20260509074917 | 12 | 135 | 1.6 | 3.2 | 0.00 | 0.00 | 0.00 | 85 | 1022.1 |
| 20260509073917 | 12 | 158 | 4.8 | 6.4 | 0.00 | 0.00 | 0.00 | 84 | 1022.1 |